Belvidere, Illinois, United States (61008)
Lat: 42.26N, Lon: 88.84W
Wx Zone: ILZ004
Local Info
Past Weather Observations for Monday, December 15, 2014

NOTE: This archive is for the closest National Weather Service station to Belvidere. Information may differ from the station used for current weather conditions.

Click here for Long-term Archive

Time Weather Temperature Dewpoint Humidity Pressure Winds Precip Visibility
23:54
Overcast
Drizzle
43°F / 6°C 41°F / 5°C 93% 29.65 in
(1004 mb)
SE 4.6 mph
(SE 7 kph)
0.00 in
(0.00 mm)
1SM
23:20
Overcast
Drizzle
43°F / 6°C 41°F / 5°C 93% 29.68 in
(1005 mb)
SE 6.9 mph
(SE 11 kph)
0.00 in
(0.00 mm)
1SM
22:54
Overcast
Drizzle
43°F / 6°C 39°F / 4°C 87% 29.68 in
(1005 mb)
SE 9.2 mph
(SE 15 kph)
0.00 in
(0.00 mm)
2SM
22:37
Overcast
Drizzle
43°F / 6°C 39°F / 4°C 87% 29.68 in
(1005 mb)
SE 9.2 mph
(SE 15 kph)
0.00 in
(0.00 mm)
2SM
21:54
Overcast
Drizzle
43°F / 6°C 41°F / 5°C 93% 29.68 in
(1005 mb)
SE 8.1 mph
(SE 13 kph)
0.00 in
(0.00 mm)
4SM
20:54
Overcast
Light Rain
43°F / 6°C 41°F / 5°C 93% 29.71 in
(1006 mb)
SSE 11.5 mph
(SSE 19 kph)
0.07 in
(1.78 mm)
3SM
19:54
Overcast
Drizzle
45°F / 7°C 43°F / 6°C 93% 29.71 in
(1006 mb)
SE 11.5 mph
(SE 19 kph)
0.00 in
(0.00 mm)
3SM
18:54
Overcast
Fog And Mist
45°F / 7°C 43°F / 6°C 93% 29.71 in
(1006 mb)
SE 10.4 mph
(SE 17 kph)
0.00 in
(0.00 mm)
5SM
17:54
Overcast
Drizzle
45°F / 7°C 43°F / 6°C 93% 29.74 in
(1007 mb)
SE 11.5 mph
(SE 19 kph)
0.02 in
(0.51 mm)
3SM
16:54
Overcast
Light Rain
45°F / 7°C 43°F / 6°C 93% 29.74 in
(1007 mb)
SE 11.5 mph
(SE 19 kph)
0.08 in
(2.03 mm)
3SM
15:54
Overcast
Light Rain
46°F / 8°C 43°F / 6°C 87% 29.74 in
(1007 mb)
SE 15 mph
(SE 24 kph)
0.00 in
(0.00 mm)
3SM
15:50
Overcast
Light Rain
46°F / 8°C 43°F / 6°C 87% 29.74 in
(1007 mb)
SE 10.4 mph
(SE 17 kph)
0.00 in
(0.00 mm)
3SM
15:22
Overcast
Fog And Mist
46°F / 8°C 43°F / 6°C 87% 29.74 in
(1007 mb)
SE 15 mph
(SE 24 kph)
0.00 in
(0.00 mm)
1 1/2SM
14:54
Overcast
Light Rain
46°F / 8°C 43°F / 6°C 87% 29.74 in
(1007 mb)
SE 17.3 mph
(SE 28 kph)
0.02 in
(0.51 mm)
1 1/2SM
13:54
Overcast
Light Rain
46°F / 8°C 45°F / 7°C 93% 29.77 in
(1008 mb)
SSE 16.1 mph
(SSE 26 kph)
0.01 in
(0.25 mm)
1 1/2SM
13:49
Overcast
Light Rain
46°F / 8°C 45°F / 7°C 93% 29.74 in
(1007 mb)
SE 12.7 mph
(SE 20 kph)
0.01 in
(0.25 mm)
1 1/2SM
13:23
Overcast
Light Rain
46°F / 8°C 45°F / 7°C 93% 29.77 in
(1008 mb)
SE 15 mph
(SE 24 kph)
0.01 in
(0.25 mm)
1SM
12:54
Overcast
Light Rain
46°F / 8°C 45°F / 7°C 93% 29.77 in
(1008 mb)
SSE 13.8 mph
(SSE 22 kph)
0.01 in
(0.25 mm)
2SM
12:18
Overcast
Fog And Mist
46°F / 8°C 45°F / 7°C 93% 29.8 in
(1009 mb)
SSE 15 mph
(SSE 24 kph)
- 1 1/2SM
12:04
Overcast
Fog And Mist
46°F / 8°C 45°F / 7°C 93% 29.8 in
(1009 mb)
SE 18.4 mph
(SE 30 kph)
- 1 1/4SM
11:54
Overcast
Fog And Mist
46°F / 8°C 45°F / 7°C 93% 29.83 in
(1010 mb)
SSE 15 mph
(SSE 24 kph)
- 2SM
11:38
Overcast
Fog And Mist
46°F / 8°C 43°F / 6°C 87% 29.83 in
(1010 mb)
SE 18.4 mph
(SE 30 kph)
- 3SM
11:08
Overcast
Fog And Mist
45°F / 7°C 43°F / 6°C 93% 29.83 in
(1010 mb)
SE 11.5 mph
(SE 19 kph)
- 2SM
10:54
Overcast
Fog And Mist
45°F / 7°C 43°F / 6°C 93% 29.86 in
(1011 mb)
SSE 11.5 mph
(SSE 19 kph)
- 1 1/2SM
09:54
Overcast
Fog And Mist
45°F / 7°C 43°F / 6°C 93% 29.92 in
(1013 mb)
SSE 10.4 mph
(SSE 17 kph)
- 2SM
09:51
Overcast
Fog And Mist
45°F / 7°C 43°F / 6°C 93% 29.92 in
(1013 mb)
SSE 12.7 mph
(SSE 20 kph)
- 2SM
09:13
Overcast
Fog And Mist
45°F / 7°C 43°F / 6°C 93% 29.89 in
(1012 mb)
SSE 13.8 mph
(SSE 22 kph)
- 1 1/2SM
09:06
Overcast
Fog And Mist
46°F / 8°C 45°F / 7°C 93% 29.89 in
(1012 mb)
SSE 13.8 mph
(SSE 22 kph)
- 2SM
08:54
Overcast
Fog And Mist
46°F / 8°C 45°F / 7°C 93% 29.92 in
(1013 mb)
SSE 15 mph
(SSE 24 kph)
- 1SM
07:54
Overcast
Fog And Mist
46°F / 8°C 45°F / 7°C 93% 29.92 in
(1013 mb)
SSE 12.7 mph
(SSE 20 kph)
- 1SM
06:54
Overcast
Fog And Mist
46°F / 8°C 45°F / 7°C 93% 29.92 in
(1013 mb)
SSE 10.4 mph
(SSE 17 kph)
0.00 in
(0.00 mm)
1SM
05:54
Overcast
Drizzle
45°F / 7°C 45°F / 7°C 100% 29.95 in
(1014 mb)
S 11.5 mph
(S 19 kph)
0.00 in
(0.00 mm)
1SM
05:03
Overcast
Fog And Mist
45°F / 7°C 43°F / 6°C 93% 29.95 in
(1014 mb)
S 13.8 mph
(S 22 kph)
- 1SM
04:54
Overcast
Fog And Mist
45°F / 7°C 43°F / 6°C 93% 29.95 in
(1014 mb)
SSE 12.7 mph
(SSE 20 kph)
0.00 in
(0.00 mm)
3/4SM
03:54
Overcast
Drizzle
45°F / 7°C 43°F / 6°C 93% 29.98 in
(1015 mb)
SSE 10.4 mph
(SSE 17 kph)
0.00 in
(0.00 mm)
3/4SM
02:54
Overcast
Drizzle
45°F / 7°C 43°F / 6°C 93% 29.98 in
(1015 mb)
S 9.2 mph
(S 15 kph)
0.00 in
(0.00 mm)
3/4SM
01:54
Obscured
Fog
45°F / 7°C 43°F / 6°C 93% 29.98 in
(1015 mb)
S 13.8 mph
(S 22 kph)
- 1/2SM
01:38
Obscured
Fog
45°F / 7°C 45°F / 7°C 100% 29.98 in
(1015 mb)
S 11.5 mph
(S 19 kph)
- 1/2SM
01:17
Obscured
Fog
45°F / 7°C 45°F / 7°C 100% 29.98 in
(1015 mb)
S 9.2 mph
(S 15 kph)
- 1/4SM
00:54
Obscured
Fog And Mist
45°F / 7°C 45°F / 7°C 100% 29.98 in
(1015 mb)
S 11.5 mph
(S 19 kph)
- 3/4SM
00:52
Obscured
Fog
45°F / 7°C 45°F / 7°C 100% 29.98 in
(1015 mb)
S 10.4 mph
(S 17 kph)
- 1/2SM
00:41
Obscured
Fog
45°F / 7°C 45°F / 7°C 100% 29.98 in
(1015 mb)
S 10.4 mph
(S 17 kph)
- 1/2SM
Time Weather Temperature Dewpoint Humidity Pressure Winds Precip Visibility


Weather for websites

WeatherForYou.com, LLC is not responsible for any damages or problems caused by this service. Current weather conditions are obtained from the closest station including government and personal stations which may have varying degrees of accuracy. Weather forecasts are derived from the NOAA NDFD. Like all things, this site belongs to Jesus Christ... He just trusts me to maintain it. If you have any questions or comments email webmaster@weatherforyou.com

Copyright © 2014, WeatherForYou.com LLC. All rights reserved.